FW8513 Weather Reports


Display with metric or nautical units.
time (UTC)temp
F
wind
direction
speed
MPH
gust
MPH
rain 1hr
in
rain 24hr
in
rain mn
in
humidity
%
barometer
mb
20260902133048 55 199 3.0 6.0 0.00 0.00 0.00 63 1007.9
20260902131543 54 205 4.0 6.0 0.00 0.00 0.00 63 1007.9
20260902130044 54 209 4.0 5.0 0.00 0.00 0.00 63 1007.8
20260902124550 55 211 3.0 4.0 0.00 0.00 0.00 61 1007.9
20260902123044 55 211 1.0 3.0 0.00 0.00 0.00 61 1007.9
20260902121544 54 211 2.0 4.0 0.00 0.00 0.00 62 1008.2
20260902114607 52 0 0.0 4.0 0.00 0.00 0.00 64 1008.6
20260902113053 52 213 0.0 3.0 0.00 0.00 0.00 65 1008.6
20260902111559 51 0 0.0 4.0 0.00 0.00 0.00 63 1008.5
20260902110043 52 213 2.0 6.0 0.00 0.00 0.00 63 1008.7
20260902104542 52 222 4.0 7.0 0.00 0.00 0.00 62 1008.6
20260902103113 54 227 4.0 8.0 0.00 0.00 0.00 60 1008.4
20260902101546 56 178 1.0 4.0 0.00 0.00 0.00 57 1008.0
20260902100045 57 179 5.0 7.0 0.00 0.00 0.00 56 1008.0
20260902094545 57 139 2.0 4.0 0.00 0.00 0.00 56 1008.0
20260902093101 58 133 2.0 5.0 0.00 0.00 0.00 55 1008.2
20260902091553 58 132 2.0 5.0 0.00 0.00 0.00 55 1008.4
20260902090055 58 126 1.0 8.0 0.00 0.00 0.00 55 1008.4
20260902084546 58 119 2.0 6.0 0.00 0.00 0.00 56 1008.6
20260902083045 58 151 1.0 3.0 0.00 0.00 0.00 55 1008.7
20260902081550 58 151 0.0 5.0 0.00 0.00 0.00 54 1008.7
20260902080044 58 153 1.0 6.0 0.00 0.00 0.00 54 1008.7
20260902074555 59 165 1.0 7.0 0.00 0.00 0.00 53 1008.9
20260902073047 60 188 5.0 8.0 0.00 0.00 0.00 49 1009.2
20260902071546 63 202 6.0 9.0 0.00 0.00 0.00 47 1009.2
20260902070048 64 161 5.0 14.0 0.00 0.00 0.00 46 1009.0
20260902064541 64 119 6.0 12.0 0.00 0.00 0.00 45 1008.7
20260902063044 65 112 6.0 11.0 0.00 0.00 0.00 45 1008.9
20260902061548 65 121 7.0 12.0 0.00 0.00 0.00 44 1008.9
20260902060059 65 99 7.0 12.0 0.00 0.00 0.00 43 1008.8
20260902054550 66 124 6.0 12.0 0.00 0.00 0.00 43 1009.0
20260902053059 66 113 7.0 11.0 0.00 0.00 0.00 42 1009.1
20260902051547 66 109 7.0 12.0 0.00 0.00 0.00 41 1009.0
20260902050050 66 123 6.0 10.0 0.00 0.00 0.00 40 1009.0
20260902044549 66 127 6.0 10.0 0.00 0.00 0.00 40 1009.2
20260902043058 66 104 8.0 11.0 0.00 0.00 0.00 39 1008.9
20260902041550 66 111 5.0 8.0 0.00 0.00 0.00 40 1008.9
20260902040054 66 132 2.0 7.0 0.00 0.00 0.00 40 1009.1
20260902034559 66 135 4.0 8.0 0.00 0.00 0.00 40 1009.0
20260902033054 67 130 4.0 9.0 0.00 0.00 0.00 39 1009.0
20260902031554 68 134 4.0 10.0 0.00 0.00 0.00 38 1009.1
20260902030053 69 127 4.0 8.0 0.00 0.00 0.00 36 1009.2
20260902024546 69 134 2.0 5.0 0.00 0.00 0.00 36 1009.0
20260902023048 70 136 2.0 4.0 0.00 0.00 0.00 35 1009.0
20260902021542 71 138 1.0 4.0 0.00 0.00 0.00 34 1009.0
20260902020058 73 139 1.0 4.0 0.00 0.00 0.00 33 1008.8
20260902014551 76 0 1.0 3.0 0.00 0.00 0.00 30 1008.9
20260902013044 78 140 1.0 3.0 0.00 0.00 0.00 28 1009.1
20260902011548 80 138 2.0 8.0 0.00 0.00 0.00 26 1009.3
20260902010046 81 156 3.0 10.0 0.00 0.00 0.00 25 1009.1
20260902004554 82 153 6.0 10.0 0.00 0.00 0.00 22 1009.2
20260902003052 83 159 6.0 10.0 0.00 0.00 0.00 22 1009.3
20260902001554 83 178 5.0 9.0 0.00 0.00 0.00 21 1009.3
20260902000047 84 157 3.0 9.0 0.00 0.00 0.00 20 1009.3
20260901234542 84 153 5.0 9.0 0.00 0.00 0.00 20 1009.2
20260901233100 84 174 6.0 11.0 0.00 0.00 0.00 22 1009.4
20260901231551 84 178 5.0 12.0 0.00 0.00 0.00 21 1009.6
20260901230047 84 165 6.0 11.0 0.00 0.00 0.00 21 1009.7
20260901224544 84 198 5.0 14.0 0.00 0.00 0.00 22 1010.0
20260901223048 84 207 7.0 11.0 0.00 0.00 0.00 21 1010.1
20260901221543 83 187 7.0 13.0 0.00 0.00 0.00 21 1010.3
20260901220108 83 197 8.0 14.0 0.00 0.00 0.00 21 1010.8
20260901214550 83 147 6.0 12.0 0.00 0.00 0.00 23 1010.8
20260901213049 82 139 3.0 13.0 0.00 0.00 0.00 24 1011.0
20260901211544 81 183 9.0 14.0 0.00 0.00 0.00 25 1011.1
20260901210047 81 124 7.0 19.0 0.00 0.00 0.00 26 1011.1
20260901204551 81 110 7.0 16.0 0.00 0.00 0.00 25 1011.3
20260901203047 81 126 7.0 17.0 0.00 0.00 0.00 26 1011.6
20260901201546 81 144 7.0 15.0 0.00 0.00 0.00 26 1011.5
20260901200051 80 154 6.0 17.0 0.00 0.00 0.00 28 1011.6
20260901194600 79 117 9.0 18.0 0.00 0.00 0.00 28 1011.6
20260901193058 79 150 8.0 15.0 0.00 0.00 0.00 30 1011.9
20260901191550 77 155 9.0 16.0 0.00 0.00 0.00 31 1012.1
20260901190047 76 159 6.0 17.0 0.00 0.00 0.00 31 1012.3
20260901184559 76 143 8.0 16.0 0.00 0.00 0.00 33 1012.4
20260901183051 75 150 9.0 15.0 0.00 0.00 0.00 33 1012.5
20260901181547 75 130 5.0 16.0 0.00 0.00 0.00 35 1012.8
20260901180055 73 132 7.0 15.0 0.00 0.00 0.00 37 1013.0
20260901174552 72 153 8.0 15.0 0.00 0.00 0.00 40 1013.0
20260901173051 71 159 8.0 15.0 0.00 0.00 0.00 41 1013.1
20260901171550 69 136 8.0 17.0 0.00 0.00 0.00 43 1013.4
20260901170117 68 150 9.0 19.0 0.00 0.00 0.00 45 1013.6
20260901164547 67 132 8.0 16.0 0.00 0.00 0.00 46 1013.8
20260901163053 65 151 10.0 15.0 0.00 0.00 0.00 47 1013.6
20260901161555 64 161 9.0 15.0 0.00 0.00 0.00 49 1013.5
20260901160051 62 150 7.0 16.0 0.00 0.00 0.00 51 1013.8
20260901154549 61 152 9.0 15.0 0.00 0.00 0.00 53 1013.8
20260901153053 60 152 6.0 17.0 0.00 0.00 0.00 54 1013.8
20260901151542 60 165 10.0 16.0 0.00 0.00 0.00 55 1014.0
20260901144549 59 134 6.0 15.0 0.00 0.00 0.00 57 1013.8
20260901143048 58 132 5.0 12.0 0.00 0.00 0.00 57 1013.7
20260901141543 57 135 5.0 11.0 0.00 0.00 0.00 59 1013.6
20260901140052 55 134 4.0 10.0 0.00 0.00 0.00 61 1013.4
20260901134547 53 141 3.0 8.0 0.00 0.00 0.00 63 1013.4